Wind_Speed
66 67 67 68 68 68 69 69 69 70 70 70 70 71 71 71 71 70 68 67 65 63 61 59 56 55 53 49 45 43 41 39 37 37 39 38 36 37 36 36 35 36 36 35 35 33 31 31 32 32 31 31 29 27 26 28 29 27 25 24 21 19 18
67 68 68 68 69 70 70 70 70 71 71 71 71 70 70 69 69 68 67 65 62 61 59 57 55 54 52 49 45 42 40 39 39 39 40 40 39 39 38 37 37 37 37 37 37 35 33 32 32 32 32 31 32 31 29 28 29 28 27 27 24 21 20
68 68 69 69 69 70 70 70 70 70 69 69 68 68 67 66 65 64 62 60 58 57 56 54 52 51 50 48 46 43 40 38 39 40 41 42 42 43 41 39 39 38 37 37 37 36 35 34 33 32 32 33 34 33 31 30 30 30 29 29 27 24 22
67 67 68 68 68 68 68 67 66 66 65 64 64 63 63 62 61 59 57 56 54 54 53 52 50 50 49 48 46 44 41 39 38 38 40 41 43 46 47 45 42 40 39 38 38 38 37 35 34 34 33 33 35 34 32 32 32 32 31 30 29 27 24
65 65 65 65 65 65 64 63 62 62 61 61 60 60 60 59 57 55 54 53 52 52 51 50 49 48 48 47 46 45 42 40 38 38 39 40 41 43 47 50 49 45 43 41 40 40 39 37 36 37 36 35 36 36 34 33 33 33 32 30 30 29 28
63 63 63 62 62 62 62 61 61 60 60 59 58 58 57 56 54 53 52 51 51 50 50 49 48 48 47 46 46 45 43 41 39 39 38 39 39 40 42 48 52 51 46 44 44 42 41 40 38 38 37 36 37 39 36 34 35 35 34 32 30 30 30
62 62 63 63 62 61 61 60 60 59 58 57 57 56 55 54 53 52 50 50 50 50 49 48 47 47 47 46 46 45 44 42 40 39 39 38 38 39 39 42 48 53 52 48 47 45 43 41 39 39 39 37 38 39 38 36 36 36 36 34 30 31 32
61 62 63 62 62 61 61 60 58 57 56 56 56 55 54 54 53 51 50 49 49 49 49 48 47 47 47 47 46 46 45 43 41 40 39 38 38 38 38 39 42 48 53 53 50 47 46 43 39 39 40 38 37 38 38 38 37 38 38 35 32 33 35
59 59 60 60 60 60 60 58 57 56 56 55 55 56 56 55 54 52 50 49 49 49 49 48 48 48 47 47 47 46 45 44 43 41 39 38 38 38 37 38 39 42 48 54 54 50 48 46 42 40 39 38 37 38 39 38 37 40 40 37 35 36 36
57 57 58 59 59 59 58 58 57 57 57 56 56 57 57 56 55 54 52 51 49 49 49 49 49 49 48 48 47 47 46 45 44 42 40 39 38 38 38 37 38 40 43 50 56 54 49 47 45 43 42 41 40 40 40 39 39 42 42 40 38 38 37
56 57 58 59 60 59 58 58 59 59 58 58 58 57 57 56 55 54 53 52 51 50 49 49 49 49 49 49 48 47 47 46 46 44 41 40 39 39 39 38 37 39 41 44 52 56 53 49 47 47 47 46 46 43 41 40 41 43 44 42 42 41 39
58 58 59 59 60 59 59 60 60 60 60 60 60 59 57 56 54 53 52 52 51 51 50 50 50 51 51 50 50 49 47 46 46 45 43 41 40 39 40 39 38 38 40 42 47 54 54 51 49 49 48 48 49 47 44 42 41 43 45 44 44 44 42
59 59 59 59 59 60 61 62 62 62 62 62 61 60 58 55 52 51 51 52 52 51 51 51 51 52 52 52 51 50 49 47 46 46 45 43 41 40 40 41 39 38 39 42 46 51 53 52 50 49 48 48 48 47 46 45 42 42 44 44 43 43 42
60 60 60 60 60 61 63 63 63 63 63 62 60 58 56 53 52 52 52 52 52 52 51 52 52 52 53 53 53 52 50 49 47 46 46 45 43 41 40 41 40 39 39 42 45 50 53 52 50 49 49 49 49 47 47 47 44 42 44 44 43 43 42
61 61 61 61 62 63 64 64 63 63 62 60 58 56 55 55 55 55 54 53 52 52 52 52 53 53 53 54 54 53 52 51 49 47 46 45 44 43 41 41 41 39 39 42 45 50 53 53 50 51 51 51 51 50 49 48 47 45 44 44 44 44 45
63 62 62 63 63 63 63 62 62 62 61 59 58 57 57 57 57 56 54 52 51 51 52 52 53 53 54 55 55 55 54 52 51 49 46 45 45 44 43 41 41 40 39 41 45 50 54 55 53 52 53 53 52 53 51 50 49 48 47 47 46 46 47
63 63 63 63 63 62 62 61 62 62 61 61 59 59 58 58 57 55 53 52 52 52 52 52 53 53 54 55 55 56 55 54 53 50 48 46 45 45 44 43 41 41 40 41 44 49 54 56 56 54 55 56 55 54 54 52 51 50 50 50 49 47 47
61 61 61 61 61 61 61 61 62 62 63 62 60 59 59 58 57 55 55 55 54 54 54 53 54 54 54 55 55 56 57 56 55 52 49 47 46 46 46 45 43 41 41 41 43 48 53 57 58 57 56 57 57 56 55 54 53 51 51 52 52 50 47
58 59 59 60 60 60 60 61 62 63 63 62 61 60 60 58 57 58 57 57 56 56 55 55 55 55 55 55 56 56 57 57 57 55 52 49 47 46 47 46 45 43 42 41 42 46 52 58 60 60 59 58 58 58 57 57 56 55 53 54 55 53 50
57 57 58 59 60 60 61 62 63 63 63 62 61 60 59 59 59 59 59 58 57 56 55 55 55 55 55 56 56 56 57 57 57 57 55 52 49 48 48 48 47 45 43 43 42 44 50 57 61 63 63 62 60 60 60 59 58 57 56 56 57 55 52
54 55 56 57 58 60 61 62 62 62 62 61 61 60 60 61 61 60 59 58 57 56 56 56 56 56 56 56 57 57 57 58 58 57 56 54 52 51 51 50 49 47 45 44 43 43 46 55 62 64 64 64 62 61 60 59 58 58 57 57 57 56 54
54 54 54 54 56 57 59 59 60 60 60 61 62 62 63 63 62 61 60 58 57 57 57 57 56 56 57 57 58 58 58 58 59 58 58 57 55 54 54 53 52 50 48 46 45 44 44 51 61 65 65 65 65 63 61 60 60 59 58 57 57 57 56
54 54 54 54 55 55 56 57 58 59 61 62 63 64 65 65 63 62 61 60 59 58 58 58 58 57 58 58 59 60 60 60 60 60 60 59 59 58 57 56 55 53 51 48 47 46 45 47 56 65 68 66 67 67 64 62 63 63 61 60 59 59 57
54 54 54 55 56 56 57 59 60 62 63 64 65 66 66 65 64 63 63 62 61 60 60 59 59 59 59 59 60 61 62 62 62 62 62 62 62 61 60 60 59 57 55 52 49 48 47 46 50 61 71 71 69 71 69 66 67 68 67 65 63 61 60
56 56 57 57 58 60 61 62 63 64 65 66 67 67 66 66 65 65 64 63 63 62 62 61 61 61 61 61 62 62 63 64 65 65 65 65 64 64 64 64 63 61 59 56 53 51 50 49 48 54 67 75 74 73 73 71 69 70 70 68 64 63 62
58 59 59 60 61 62 63 64 65 65 66 67 67 68 68 67 67 66 66 65 65 64 64 64 63 63 63 63 64 64 65 66 67 67 68 68 68 67 67 67 66 65 63 60 57 54 53 52 50 50 59 72 78 77 75 75 73 71 71 69 65 63 63
58 59 59 60 61 62 63 64 65 66 67 67 68 69 69 68 68 67 67 67 66 66 66 66 66 66 65 65 66 66 67 67 68 69 70 71 71 70 70 69 69 68 67 64 61 58 56 55 54 52 53 63 76 81 79 77 76 74 72 71 69 67 66
57 58 59 59 60 61 63 64 65 67 68 68 69 69 69 69 69 68 68 68 68 68 68 69 69 69 69 69 69 69 69 70 70 71 72 73 73 73 73 72 71 71 70 69 66 62 59 57 56 56 54 56 67 80 84 80 78 77 74 72 72 71 69
56 57 58 60 61 62 64 66 67 67 68 69 69 69 69 69 69 70 70 70 71 71 71 71 72 72 72 72 72 72 72 72 73 73 74 74 75 76 76 75 75 74 73 72 70 67 63 60 59 58 57 56 60 72 84 86 82 80 77 75 74 74 72
56 57 59 60 62 64 65 66 67 67 68 68 68 69 69 70 71 71 72 73 73 74 74 74 74 74 74 74 74 75 75 76 75 76 76 76 76 77 78 78 78 78 77 75 74 71 67 64 62 61 60 59 58 63 77 89 89 84 81 79 77 76 74
57 58 60 61 63 64 65 66 67 67 68 68 69 69 71 72 73 74 74 75 76 76 76 76 77 76 76 76 76 77 77 78 79 79 79 79 78 78 79 79 80 80 80 79 77 75 72 68 66 64 62 61 61 60 69 84 91 89 85 84 81 78 78
58 59 61 62 63 65 65 66 67 67 68 69 70 71 73 74 75 76 77 77 77 78 78 78 78 78 78 78 79 79 79 81 82 82 82 83 82 80 79 79 80 80 80 81 80 78 76 73 69 68 66 63 63 63 65 76 88 91 89 86 84 81 79
59 60 62 63 63 64 65 66 67 68 69 70 72 74 75 76 77 78 78 78 79 79 80 80 80 80 80 80 80 80 80 80 81 82 82 83 83 82 79 78 78 79 79 80 81 80 78 76 73 71 69 66 65 66 67 70 80 90 91 88 86 83 80
60 61 62 63 63 64 66 67 68 70 71 73 74 76 77 77 78 78 79 79 80 81 81 81 81 81 80 79 78 78 77 77 78 78 79 80 81 80 79 76 75 75 76 77 79 80 79 77 75 73 72 70 68 69 70 69 73 83 92 92 89 86 82
60 61 62 63 64 66 67 69 70 72 73 75 76 77 78 78 79 80 80 81 81 81 81 80 79 78 77 76 75 74 73 72 72 73 74 76 77 76 76 74 72 71 72 73 74 76 77 77 76 74 73 72 71 71 72 71 71 75 86 94 94 89 85
61 62 63 65 66 68 70 71 72 73 74 75 76 77 78 79 80 81 82 81 81 80 79 77 76 74 73 72 70 69 68 67 67 67 68 69 71 72 70 69 68 67 67 69 70 71 73 74 74 74 74 73 73 73 73 73 73 72 77 88 96 95 89
62 63 65 67 69 70 71 72 73 73 74 75 77 78 80 80 81 80 80 79 78 78 77 75 73 71 69 68 66 65 64 64 63 62 62 63 65 66 65 64 63 61 62 64 65 66 69 71 71 71 73 73 74 75 75 74 74 72 73 80 92 98 95
Wind_Direction
273 274 274 275 276 277 278 279 280 281 282 283 285 286 288 289 290 291 292 293 294 295 295 295 294 293 292 290 286 282 276 268 261 257 256 253 254 255 253 252 254 255 255 255 256 256 257 258 257 257 257 259 259 260 264 264 262 263 264 266 269 271 276
275 275 276 276 277 277 278 279 279 281 282 283 284 286 287 289 291 291 292 292 292 293 293 292 292 291 291 290 287 283 278 271 264 260 257 252 250 251 252 252 251 253 255 256 257 256 255 256 258 259 257 256 256 256 259 262 261 260 262 264 265 266 270
275 276 277 277 278 278 278 279 280 281 282 283 284 285 287 288 290 291 290 290 290 290 290 290 289 289 289 289 288 285 281 274 268 264 261 257 252 250 250 251 250 250 252 255 257 256 255 256 258 259 258 255 254 253 255 259 260 260 262 262 260 262 266
274 275 276 277 278 278 279 280 281 282 283 284 285 287 288 289 290 289 288 288 287 287 287 287 286 286 286 287 287 286 283 278 273 269 265 261 257 252 249 248 249 249 247 250 255 255 253 254 255 256 256 255 254 252 251 255 257 260 263 262 259 259 261
273 274 276 276 277 278 279 280 282 283 285 286 287 289 290 290 290 289 287 286 286 285 284 284 283 283 285 286 287 287 285 281 277 274 271 267 262 258 252 247 246 248 247 246 251 254 253 251 251 252 252 252 254 252 249 251 254 258 262 261 259 258 260
272 273 274 275 277 278 279 281 283 285 287 288 289 290 290 290 290 289 287 286 284 283 282 281 281 281 283 284 286 286 285 282 279 277 275 272 267 263 259 251 245 244 246 245 246 251 254 252 250 251 252 252 253 252 249 249 252 256 259 258 257 260 263
271 272 273 275 277 278 280 282 285 287 288 289 289 290 289 290 289 288 287 285 284 282 281 279 279 280 281 283 284 285 284 282 280 278 277 276 272 267 264 259 250 244 243 243 244 247 252 253 250 251 252 252 253 252 249 248 251 254 255 255 255 258 261
273 273 274 276 277 278 281 283 285 287 288 288 288 288 288 288 288 287 286 285 283 281 280 278 278 278 279 281 282 283 283 282 279 278 277 276 275 271 267 265 259 250 243 241 241 244 248 250 248 247 249 250 252 253 250 248 250 252 252 253 254 255 257
276 276 276 277 278 280 282 284 285 286 288 288 288 287 287 287 287 286 285 284 283 282 280 278 276 277 277 278 280 281 282 281 279 278 278 277 276 274 271 268 264 258 248 241 239 243 246 247 246 244 243 246 250 253 253 251 250 251 250 251 254 256 258
277 278 278 279 280 281 283 283 284 286 287 286 287 287 286 285 285 285 285 284 283 282 280 278 276 276 276 276 278 279 281 281 279 278 278 278 277 276 274 272 268 263 256 246 240 242 246 246 245 243 241 243 247 251 253 252 250 251 251 250 252 255 257
277 278 279 280 281 282 283 283 284 286 286 286 286 286 285 284 284 284 284 284 283 282 280 278 276 276 275 275 276 278 279 280 279 278 277 277 278 278 275 274 271 266 261 253 244 242 245 246 244 243 243 244 247 248 249 248 247 248 250 250 251 252 253
277 278 279 280 281 282 282 282 283 285 285 285 285 285 284 284 284 284 284 284 284 282 280 278 277 276 275 275 275 276 277 278 278 278 278 277 277 279 277 274 273 269 263 256 247 242 244 246 245 244 245 246 247 247 245 243 243 246 249 250 251 252 251
278 279 279 280 280 281 281 282 283 284 284 284 284 283 283 283 283 284 285 285 284 282 280 277 276 276 275 275 275 275 276 276 276 277 277 277 277 278 278 275 273 270 264 257 249 243 243 245 244 244 245 246 246 245 244 242 241 244 248 250 250 251 250
278 278 278 279 279 280 280 282 283 283 283 283 283 283 283 283 283 284 285 285 284 282 281 278 276 276 276 275 275 275 276 276 275 275 275 277 276 276 277 276 273 270 265 257 249 244 242 242 243 243 244 245 244 243 244 243 239 239 245 248 249 251 252
276 276 277 278 278 279 280 281 282 282 282 282 282 283 284 284 285 286 285 284 283 282 281 279 277 276 275 275 275 275 275 275 274 273 272 274 275 275 275 274 273 271 266 259 250 244 240 240 241 243 243 243 241 240 242 242 237 235 240 245 246 249 251
274 275 275 277 278 279 280 280 280 280 281 281 282 284 286 287 287 287 286 284 283 282 280 279 277 276 275 275 275 275 275 274 273 272 271 271 273 274 274 273 271 270 267 261 252 245 240 238 239 241 243 242 240 238 239 240 236 233 236 241 243 245 248
273 274 275 276 277 278 278 278 279 280 281 282 284 286 287 288 288 287 286 285 284 282 281 279 277 276 275 274 274 275 275 274 273 271 270 269 270 271 271 271 269 268 267 263 255 247 241 237 237 238 239 240 240 238 237 238 237 234 235 237 239 243 246
273 273 274 275 275 276 276 277 278 280 281 283 285 286 287 288 287 287 287 286 285 283 281 279 277 275 274 273 273 273 274 274 273 271 269 268 268 269 269 269 268 266 265 264 258 249 242 237 236 236 237 237 237 237 237 237 237 238 238 238 238 239 243
273 273 273 274 275 275 276 276 278 280 281 283 285 286 286 286 286 287 287 287 285 284 282 280 278 275 273 272 271 271 271 272 272 272 271 268 267 266 267 267 266 264 262 262 259 252 244 238 235 235 236 236 236 236 237 238 240 242 243 241 239 238 239
274 274 274 275 275 276 276 277 278 280 281 283 285 285 285 286 287 288 287 286 285 284 283 281 279 277 274 272 271 270 270 270 270 271 271 270 268 266 265 265 264 263 261 260 259 254 246 239 235 235 236 236 236 236 237 240 242 243 243 241 241 240 239
275 275 276 276 277 277 277 278 279 280 282 283 284 284 285 287 288 288 287 286 285 284 283 282 280 278 276 274 272 270 270 270 269 269 269 269 268 266 265 263 262 261 260 258 258 256 249 241 236 234 234 235 235 235 236 238 240 241 241 239 240 240 240
276 277 277 278 277 278 278 278 279 281 282 283 284 284 286 287 288 287 287 286 286 285 284 283 281 279 277 275 273 271 270 269 269 269 268 268 267 266 265 264 262 260 258 257 256 256 252 244 237 233 233 233 232 232 232 235 236 236 237 238 238 239 240
278 278 279 279 278 278 279 279 280 282 282 283 284 285 287 287 287 287 287 286 286 285 284 283 281 279 277 275 274 272 271 270 269 268 268 267 266 265 265 264 263 260 258 256 255 254 253 248 239 233 231 231 231 230 230 231 233 233 233 234 235 237 237
279 279 279 279 279 279 279 280 281 282 283 284 285 286 286 287 287 287 287 286 285 284 283 282 281 280 278 276 274 273 272 271 269 268 267 266 266 265 264 263 262 261 259 256 254 253 252 251 244 235 231 230 230 230 230 230 231 232 232 233 235 237 238
278 279 279 279 279 279 280 281 282 283 283 284 285 286 286 287 287 287 287 286 285 283 282 282 281 280 278 277 275 273 272 271 270 269 268 266 265 265 264 264 263 261 259 257 254 252 251 250 248 240 233 230 230 230 231 230 230 231 233 236 239 240 241
279 279 279 280 280 280 281 281 282 283 283 284 285 285 286 287 287 287 287 286 285 283 282 281 281 280 279 277 275 274 272 271 270 269 268 267 266 265 264 263 263 262 261 258 255 252 250 249 249 245 238 232 230 230 231 231 230 231 232 235 237 239 240
279 279 280 280 280 280 281 281 281 282 283 284 284 285 286 287 287 287 287 286 284 283 282 281 281 280 279 277 276 274 272 271 270 269 268 267 267 266 264 263 263 262 262 260 257 253 251 248 247 247 243 236 231 230 230 231 230 230 231 233 235 236 237
279 279 279 279 279 280 280 281 281 282 283 284 285 286 286 287 287 287 287 286 285 284 283 282 282 281 279 278 276 275 273 271 270 268 267 266 266 265 265 263 262 261 261 260 258 254 251 248 246 245 245 241 235 231 230 230 230 229 230 231 233 235 236
278 278 278 278 279 279 280 281 282 283 284 285 285 286 287 288 288 288 287 287 286 285 285 284 283 282 281 280 278 276 274 273 271 269 267 265 264 264 263 263 262 261 259 258 258 255 251 248 246 245 244 243 239 233 230 230 229 228 228 229 231 232 234
277 277 277 278 278 279 280 281 283 284 285 286 287 288 288 288 288 288 288 288 287 287 287 286 285 284 283 282 280 279 277 275 273 271 268 266 264 263 262 262 261 260 259 258 257 255 253 249 246 245 243 242 242 237 231 230 229 228 227 227 230 231 232
277 277 277 278 279 280 282 283 284 285 286 287 288 289 289 289 289 289 289 289 289 288 288 287 286 285 284 283 282 281 279 278 277 275 272 270 266 264 262 261 260 259 259 258 257 255 254 251 247 244 243 241 241 239 234 230 229 228 227 227 229 232 233
277 278 279 280 281 282 284 285 286 287 288 289 290 290 290 290 290 290 290 290 290 289 289 288 287 287 286 285 284 282 281 280 278 277 275 273 271 267 264 262 260 259 258 258 257 255 253 251 248 245 242 240 239 240 238 233 229 228 227 226 228 231 234
279 280 281 282 283 285 286 287 289 289 290 290 291 291 291 291 291 291 291 291 291 290 290 290 289 289 288 286 285 284 282 281 279 278 276 274 273 271 268 264 262 259 258 256 256 255 253 251 249 246 242 239 238 238 239 236 231 227 226 226 226 228 232
281 282 283 285 286 288 289 290 290 291 291 292 292 292 292 292 292 292 292 292 292 292 292 291 291 290 289 288 287 285 284 282 280 278 277 275 274 272 270 267 264 261 259 256 255 254 252 250 247 245 243 239 236 236 237 237 234 229 226 225 225 226 229
283 285 286 288 289 290 291 291 292 293 293 293 294 294 294 294 294 294 294 294 294 294 294 293 292 291 290 289 288 286 285 283 281 279 278 276 275 273 271 269 266 263 260 258 255 253 252 249 246 244 242 239 236 235 235 236 235 232 228 225 225 225 227
286 288 289 290 291 291 292 293 293 294 294 294 294 295 295 295 296 296 297 297 297 296 296 295 294 294 293 292 291 289 287 285 283 281 279 277 276 275 273 270 268 264 261 258 255 252 251 249 246 242 240 238 236 234 233 233 234 234 231 227 225 225 226
288 289 290 291 292 292 293 293 294 294 295 295 295 296 297 297 298 298 298 299 299 298 298 298 297 297 296 295 293 292 290 287 285 283 281 279 277 276 274 272 268 265 262 258 255 252 249 248 246 242 239 237 235 233 232 231 231 232 232 230 226 225 225
Height
10705 10704 10704 10704 10704 10703 10702 10701 10700 10699 10698 10698 10697 10695 10693 10691 10690 10689 10688 10687 10686 10685 10684 10683 10682 10681 10682 10683 10684 10683 10683 10683 10684 10683 10683 10684 10684 10683 10683 10683 10682 10681 10681 10681 10682 10683 10684 10684 10685 10686 10687 10687 10688 10690 10691 10692 10692 10692 10692 10693 10693 10694 10694
10698 10697 10697 10697 10697 10697 10696 10695 10695 10694 10693 10692 10691 10690 10688 10686 10684 10682 10681 10680 10679 10678 10677 10676 10675 10674 10674 10675 10677 10678 10678 10677 10678 10678 10677 10678 10679 10678 10678 10678 10677 10677 10676 10676 10677 10678 10679 10680 10681 10682 10682 10683 10684 10685 10687 10688 10689 10689 10689 10689 10690 10691 10691
10691 10691 10690 10690 10690 10689 10689 10689 10689 10688 10688 10686 10685 10684 10682 10681 10679 10677 10675 10674 10673 10672 10671 10670 10669 10669 10668 10669 10670 10671 10671 10671 10671 10671 10671 10672 10673 10673 10673 10673 10672 10673 10673 10672 10672 10673 10674 10675 10676 10677 10678 10679 10679 10680 10683 10684 10685 10685 10685 10686 10687 10688 10688
10685 10684 10684 10683 10683 10682 10682 10682 10682 10682 10681 10680 10679 10677 10676 10675 10674 10672 10670 10669 10668 10667 10666 10665 10664 10664 10663 10663 10664 10664 10665 10665 10665 10665 10665 10665 10666 10666 10667 10667 10667 10668 10668 10668 10667 10667 10669 10671 10671 10672 10673 10674 10674 10676 10678 10679 10680 10681 10681 10682 10683 10684 10684
10679 10678 10678 10677 10676 10676 10676 10676 10676 10675 10675 10674 10672 10671 10669 10668 10667 10666 10665 10663 10662 10661 10661 10660 10659 10658 10658 10658 10658 10658 10659 10659 10659 10659 10658 10659 10659 10659 10660 10661 10662 10662 10663 10664 10663 10662 10663 10665 10666 10666 10667 10669 10670 10671 10673 10674 10675 10677 10677 10678 10679 10680 10680
10673 10672 10671 10671 10670 10670 10670 10670 10669 10669 10668 10667 10665 10664 10663 10661 10661 10660 10659 10657 10656 10655 10655 10654 10653 10653 10653 10653 10652 10652 10652 10652 10652 10653 10652 10652 10652 10653 10653 10653 10655 10656 10657 10659 10659 10658 10658 10659 10661 10662 10662 10664 10665 10665 10668 10669 10670 10672 10673 10674 10675 10676 10677
10666 10665 10665 10665 10664 10664 10663 10663 10662 10662 10661 10660 10659 10658 10656 10655 10655 10654 10653 10652 10651 10649 10649 10648 10648 10648 10647 10647 10647 10646 10646 10646 10646 10647 10646 10646 10646 10646 10646 10646 10647 10649 10651 10653 10654 10654 10653 10654 10657 10657 10657 10659 10660 10660 10663 10664 10665 10667 10668 10669 10671 10672 10672
10659 10659 10659 10658 10658 10658 10657 10657 10656 10655 10655 10654 10653 10652 10651 10650 10649 10648 10647 10646 10645 10643 10643 10643 10642 10642 10642 10641 10641 10640 10640 10640 10640 10641 10640 10640 10640 10640 10640 10640 10640 10641 10644 10646 10648 10648 10648 10648 10651 10652 10652 10654 10655 10655 10657 10659 10661 10661 10662 10664 10666 10667 10667
10652 10652 10652 10652 10651 10651 10651 10650 10650 10649 10648 10648 10647 10645 10645 10644 10643 10642 10641 10640 10639 10637 10637 10637 10636 10636 10636 10636 10635 10634 10634 10633 10633 10634 10634 10634 10633 10633 10633 10634 10634 10634 10636 10639 10641 10642 10642 10643 10645 10646 10647 10649 10650 10650 10652 10654 10656 10655 10656 10660 10661 10661 10663
10646 10646 10645 10645 10644 10644 10644 10644 10643 10642 10642 10641 10640 10639 10638 10637 10636 10635 10635 10634 10633 10631 10631 10631 10630 10630 10630 10629 10629 10628 10628 10627 10627 10627 10628 10627 10627 10627 10627 10627 10627 10627 10629 10631 10633 10635 10636 10637 10638 10640 10642 10643 10644 10645 10646 10649 10651 10649 10650 10654 10656 10656 10658
10640 10640 10639 10638 10638 10638 10638 10637 10636 10636 10635 10634 10634 10633 10632 10631 10630 10629 10628 10627 10627 10626 10625 10625 10624 10623 10623 10622 10622 10622 10621 10621 10620 10620 10621 10621 10621 10620 10620 10620 10621 10621 10622 10624 10626 10627 10629 10631 10632 10633 10635 10637 10638 10640 10641 10643 10645 10644 10645 10649 10650 10650 10652
10634 10634 10633 10632 10632 10632 10631 10630 10630 10629 10628 10628 10627 10626 10626 10625 10624 10623 10622 10621 10620 10620 10619 10618 10617 10617 10616 10615 10615 10615 10615 10615 10614 10613 10614 10615 10615 10614 10613 10613 10614 10615 10616 10617 10618 10620 10622 10624 10625 10626 10629 10631 10632 10633 10635 10637 10639 10639 10639 10642 10644 10644 10647
10627 10627 10627 10626 10626 10625 10624 10624 10624 10623 10622 10621 10621 10620 10620 10619 10618 10617 10616 10614 10613 10613 10612 10611 10610 10610 10609 10608 10608 10608 10608 10608 10608 10607 10607 10608 10608 10608 10607 10607 10607 10608 10609 10610 10611 10613 10615 10617 10618 10620 10622 10624 10625 10627 10629 10631 10634 10634 10633 10635 10638 10639 10641
10621 10620 10620 10620 10619 10619 10618 10618 10617 10616 10615 10615 10614 10614 10613 10612 10611 10611 10609 10608 10606 10606 10605 10604 10603 10603 10602 10601 10601 10601 10601 10601 10601 10601 10600 10600 10601 10602 10601 10600 10601 10602 10602 10602 10603 10605 10608 10610 10611 10613 10615 10617 10619 10621 10622 10625 10628 10629 10627 10629 10632 10633 10634
10614 10614 10614 10613 10613 10612 10612 10611 10610 10609 10609 10608 10608 10607 10606 10605 10605 10604 10603 10601 10600 10599 10598 10597 10596 10596 10595 10595 10594 10594 10594 10594 10594 10594 10594 10594 10594 10595 10595 10594 10594 10595 10595 10595 10596 10598 10600 10603 10604 10606 10608 10610 10612 10614 10616 10618 10621 10623 10622 10623 10626 10626 10628
10608 10607 10607 10607 10606 10606 10605 10604 10603 10602 10602 10601 10601 10600 10599 10599 10598 10597 10596 10594 10593 10592 10591 10590 10589 10589 10588 10587 10587 10586 10586 10586 10587 10587 10587 10587 10587 10587 10588 10588 10587 10588 10588 10588 10588 10590 10593 10596 10597 10599 10600 10603 10606 10607 10609 10611 10614 10616 10616 10617 10619 10621 10622
10601 10601 10600 10600 10599 10599 10598 10597 10596 10595 10595 10595 10594 10593 10592 10591 10590 10589 10588 10587 10586 10585 10584 10583 10582 10581 10581 10580 10579 10578 10578 10578 10579 10579 10580 10580 10580 10580 10580 10580 10580 10581 10581 10581 10580 10582 10585 10588 10590 10592 10593 10595 10598 10600 10602 10604 10606 10609 10610 10610 10613 10616 10617
10594 10594 10593 10593 10592 10592 10591 10590 10589 10589 10588 10588 10587 10586 10585 10584 10583 10582 10581 10579 10578 10577 10576 10575 10574 10574 10573 10573 10572 10571 10570 10570 10570 10570 10571 10572 10573 10573 10573 10573 10573 10574 10574 10574 10573 10574 10576 10580 10583 10585 10586 10588 10590 10592 10595 10597 10599 10602 10603 10604 10606 10609 10612
10588 10587 10586 10586 10585 10585 10584 10583 10583 10582 10581 10581 10580 10579 10578 10576 10575 10574 10573 10572 10571 10569 10568 10567 10566 10565 10565 10565 10564 10563 10563 10562 10561 10561 10562 10564 10564 10565 10565 10564 10565 10566 10566 10566 10566 10567 10568 10571 10574 10577 10578 10580 10583 10585 10588 10590 10592 10594 10597 10598 10598 10602 10605
10581 10581 10580 10580 10579 10578 10577 10577 10576 10575 10575 10574 10573 10571 10570 10569 10568 10566 10565 10564 10563 10562 10560 10559 10558 10557 10556 10556 10555 10555 10555 10554 10554 10553 10553 10554 10555 10556 10556 10556 10556 10557 10558 10559 10559 10559 10560 10563 10566 10569 10571 10573 10575 10578 10580 10583 10585 10587 10589 10591 10591 10595 10599
10575 10574 10574 10574 10573 10572 10571 10570 10570 10569 10568 10566 10565 10563 10562 10561 10560 10558 10557 10556 10554 10553 10552 10551 10550 10548 10547 10546 10546 10546 10545 10545 10545 10545 10545 10545 10546 10546 10547 10547 10548 10549 10550 10550 10551 10552 10553 10554 10557 10560 10563 10565 10567 10570 10573 10575 10577 10579 10581 10583 10585 10587 10591
10569 10569 10568 10567 10566 10566 10565 10564 10563 10562 10560 10559 10557 10556 10554 10553 10552 10550 10549 10547 10546 10544 10543 10542 10541 10540 10539 10537 10536 10536 10536 10536 10536 10536 10535 10536 10536 10536 10537 10538 10538 10539 10541 10542 10543 10544 10545 10546 10548 10551 10554 10557 10559 10561 10564 10567 10570 10572 10574 10576 10578 10580 10583
10563 10562 10561 10561 10560 10559 10558 10557 10556 10554 10553 10551 10549 10548 10546 10544 10543 10541 10540 10539 10537 10536 10535 10533 10532 10532 10531 10529 10528 10526 10525 10525 10526 10526 10526 10526 10526 10526 10527 10527 10528 10529 10531 10533 10534 10535 10536 10537 10539 10542 10544 10548 10551 10553 10556 10559 10561 10563 10565 10567 10570 10572 10575
10557 10556 10555 10554 10553 10552 10551 10549 10548 10546 10545 10543 10541 10539 10538 10536 10535 10533 10531 10530 10528 10527 10525 10524 10523 10522 10522 10521 10519 10518 10516 10515 10515 10515 10516 10516 10516 10516 10516 10517 10518 10519 10521 10523 10525 10526 10527 10528 10530 10532 10535 10538 10542 10544 10547 10550 10551 10554 10556 10558 10561 10563 10567
10550 10549 10548 10547 10546 10544 10543 10542 10540 10538 10536 10534 10533 10531 10529 10528 10526 10524 10523 10521 10519 10517 10516 10515 10514 10513 10512 10511 10510 10509 10507 10506 10504 10504 10504 10505 10505 10505 10505 10505 10506 10508 10510 10512 10515 10517 10518 10519 10521 10523 10525 10528 10532 10535 10538 10541 10543 10545 10547 10550 10553 10557 10560
10543 10542 10541 10540 10538 10536 10535 10533 10532 10530 10528 10526 10524 10522 10521 10519 10517 10515 10513 10511 10509 10508 10506 10505 10504 10503 10502 10501 10500 10499 10498 10496 10495 10493 10493 10493 10493 10494 10495 10494 10494 10495 10498 10501 10504 10507 10508 10509 10511 10513 10515 10517 10521 10525 10529 10532 10534 10536 10538 10542 10545 10549 10553
10535 10535 10533 10532 10530 10529 10527 10525 10523 10521 10519 10517 10516 10514 10512 10510 10508 10506 10504 10502 10500 10498 10496 10495 10493 10492 10491 10490 10488 10487 10487 10486 10484 10483 10482 10481 10480 10481 10482 10483 10483 10483 10484 10488 10492 10496 10498 10499 10501 10503 10505 10507 10510 10514 10518 10522 10525 10526 10529 10533 10536 10540 10543
10528 10527 10526 10524 10523 10521 10519 10517 10515 10513 10511 10509 10507 10505 10503 10501 10498 10496 10494 10491 10489 10488 10486 10484 10483 10481 10480 10478 10477 10475 10474 10473 10472 10471 10470 10469 10468 10468 10468 10469 10471 10471 10472 10474 10478 10483 10487 10489 10491 10492 10494 10497 10499 10502 10507 10511 10514 10516 10520 10524 10527 10530 10533
10521 10520 10518 10517 10515 10513 10511 10509 10507 10505 10503 10501 10499 10496 10494 10491 10488 10486 10483 10481 10479 10477 10475 10473 10471 10470 10467 10466 10464 10462 10460 10459 10458 10458 10457 10456 10456 10455 10455 10456 10456 10457 10459 10460 10463 10468 10474 10478 10480 10481 10484 10486 10488 10492 10496 10499 10502 10506 10511 10515 10517 10520 10523
10513 10511 10510 10509 10507 10505 10503 10501 10499 10497 10495 10492 10490 10487 10484 10481 10478 10476 10473 10470 10468 10465 10463 10461 10459 10457 10455 10453 10451 10448 10446 10444 10443 10442 10441 10441 10442 10441 10441 10442 10442 10443 10444 10445 10448 10453 10459 10465 10468 10469 10472 10475 10477 10481 10484 10485 10489 10496 10500 10504 10507 10511 10514
10505 10504 10502 10501 10499 10497 10495 10493 10491 10489 10486 10484 10481 10477 10474 10471 10468 10465 10463 10460 10457 10454 10451 10449 10446 10444 10442 10439 10437 10435 10432 10429 10427 10426 10424 10424 10425 10426 10426 10427 10428 10429 10429 10430 10433 10437 10443 10450 10455 10457 10461 10464 10467 10470 10471 10471 10476 10484 10489 10493 10498 10501 10504
10498 10497 10495 10493 10491 10489 10487 10484 10482 10480 10477 10474 10471 10468 10464 10461 10457 10454 10452 10449 10446 10442 10439 10436 10433 10431 10428 10425 10423 10421 10418 10415 10411 10409 10407 10405 10405 10407 10409 10411 10412 10414 10415 10415 10417 10421 10427 10434 10440 10444 10448 10452 10456 10458 10457 10458 10464 10471 10477 10483 10488 10491 10495
10492 10490 10488 10486 10484 10481 10479 10476 10473 10471 10468 10465 10461 10458 10454 10451 10447 10444 10440 10437 10434 10430 10426 10423 10419 10416 10414 10411 10408 10405 10402 10400 10396 10392 10389 10387 10386 10386 10389 10392 10395 10397 10399 10401 10402 10404 10410 10417 10424 10429 10434 10440 10444 10444 10442 10446 10453 10460 10466 10473 10477 10481 10486
10485 10483 10480 10478 10476 10473 10470 10467 10465 10462 10459 10455 10451 10447 10443 10440 10436 10433 10429 10425 10421 10418 10414 10409 10406 10402 10399 10395 10393 10389 10386 10384 10380 10376 10373 10370 10369 10368 10369 10373 10376 10379 10382 10385 10387 10389 10393 10400 10407 10413 10419 10425 10430 10430 10430 10435 10441 10447 10454 10461 10465 10470 10475
10477 10475 10473 10470 10467 10465 10462 10458 10456 10453 10449 10445 10441 10437 10432 10428 10425 10421 10417 10413 10408 10404 10400 10396 10392 10388 10384 10381 10377 10374 10371 10368 10365 10362 10358 10355 10352 10351 10352 10355 10358 10362 10365 10367 10370 10373 10377 10382 10390 10397 10403 10409 10414 10417 10419 10423 10428 10434 10442 10448 10452 10458 10464
10469 10468 10465 10462 10459 10456 10453 10450 10447 10444 10440 10436 10431 10426 10422 10418 10414 10409 10404 10400 10395 10391 10386 10382 10378 10374 10371 10367 10363 10359 10356 10353 10351 10348 10345 10342 10338 10336 10337 10339 10342 10346 10349 10351 10354 10358 10361 10365 10372 10380 10387 10394 10399 10403 10407 10411 10416 10423 10430 10434 10440 10447 10453
10462 10460 10457 10454 10451 10448 10445 10442 10438 10435 10431 10427 10422 10417 10412 10408 10403 10399 10393 10388 10383 10378 10372 10368 10364 10361 10358 10354 10350 10346 10343 10339 10337 10335 10333 10330 10326 10324 10323 10325 10328 10331 10334 10336 10339 10343 10347 10350 10356 10363 10371 10378 10384 10389 10394 10398 10404 10411 10417 10420 10426 10433 10441